Location: Hartman Creek State Park
(44.3257°N, 89.2134°W)
Time: 20:55:00
(UTC-05:00)

Cosmos 2263 Rocket - Visible Passes

Search period start: 31 October 2014 00:00
Search period end: 09 November 2014 23:00
Orbit: 825 x 848 km, 71.0° (Epoch: 31 October)

Date Brightness Start Highest point End Pass type
(mag) Time Alt. Az. Time Alt. Az. Time Alt. Az.
31 Oct 2.7 06:36:55 10° S 06:42:22 63° ESE 06:47:52 10° NNE visible
01 Nov 2.9 06:20:21 10° S 06:25:46 58° ESE 06:31:13 10° NNE visible
02 Nov 3.0 05:03:47 10° S 05:09:09 53° ESE 05:14:34 10° NE visible
03 Nov 3.1 04:47:15 10° S 04:52:33 49° ESE 04:57:54 10° NE visible
04 Nov 3.2 04:30:43 10° S 04:35:57 45° ESE 04:41:14 10° NE visible
05 Nov 3.3 04:14:11 10° S 04:19:21 42° ESE 04:24:33 10° NE visible
05 Nov 2.9 05:58:28 10° WSW 06:03:23 32° NW 06:08:21 10° N visible
06 Nov 3.4 03:57:41 10° S 04:02:46 38° ESE 04:07:52 10° NE visible
06 Nov 2.8 05:41:42 10° WSW 05:46:43 34° NW 05:51:47 10° N visible
07 Nov 3.5 03:43:23 22° SSE 03:46:10 35° ESE 03:51:11 10° NE visible
07 Nov 2.7 05:25:13 11° WSW 05:30:04 37° NW 05:35:12 10° NNE visible
08 Nov 3.6 03:28:48 31° ESE 03:29:35 33° ESE 03:34:29 10° NE visible
08 Nov 2.6 05:10:36 24° WSW 05:13:24 39° WNW 05:18:37 10° NNE visible
09 Nov 3.9 03:13:49 29° E 03:13:49 29° E 03:17:47 10° NE visible
09 Nov 2.5 04:55:35 37° W 04:56:45 42° WNW 05:02:02 10° NNE visible
